Location: Unspecified
(0.0000°N, 0.0000°E)
Time: 10:48:55
(UTC+00:00)

Vanguard 3 - Pass Details

Date: 30 September 2023
Orbit: 507 x 3241 km, 33.3° (Epoch: 06 December)

Event Time Altitude Azimuth Distance (km) Brightness Sun altitude
Rises 12:41:51 0° 226° (SW) 6,544 11.9 76.8°
Reaches altitude 10° 12:45:57 10° 223° (SW) 5,767 11.8 75.8°
Maximum altitude 13:04:56 63° 144° (SE) 3,474 11.3 71.1°
Drops below altitude 10° 13:22:30 10° 67° (ENE) 5,434 11.2 66.7°
Sets 13:26:11 0° 64° (ENE) 6,169 11.4 65.8°
